Weather History for Howell, MI

Change the Weather History Date:

Wednesday, January 15, 2014

  Actual Average Record
Temperature  
Mean Temperature 22 °F -  
Max Temperature 26 °F 27 °F 42 °F (2001)
Min Temperature 18 °F 14 °F -7 °F (2009)
Degree Days  
Heating Degree Days 42    
Moisture  
Dew Point 16 °F    
Average Humidity 74    
Maximum Humidity 86    
Minimum Humidity 64    
Precipitation  
Precipitation 0.00 in - - ()
Sea Level Pressure  
Sea Level Pressure 29.84 in    
Wind  
Wind Speed 14 mph (WSW)    
Max Wind Speed 23 mph    
Max Gust Speed 32 mph    
Visibility 9 miles    
Events Snow    
Averages and records for this station are not official NWS values.
T = Trace of Precipitation, MM = Missing Value Source: NWS Daily Summary

Daily Weather History Graph

Daily Weather History Graph

Search for Another Location

Airport:

Trip Planner

Search our weather history database for the weather conditions in past years. The results will help you decide how hot, cold, wet, or windy it might be!

Date:

Astronomy

Jan. 15, 2014 Rise Set
Actual Time 8:03 AM EST 5:27 PM EST
Civil Twilight 7:32 AM EST 5:59 PM EST
Nautical Twilight 6:57 AM EST 6:33 PM EST
Astronomical Twilight 6:23 AM EST 7:07 PM EST
Moon 5:26 PM EST (1/15) 7:17 AM EST (1/15)
Length of Visible Light 10h 27m
Length of Day
9h 24m
Full, 100% of the Moon is Illuminated
Jan 15
Full
Jan 15
Full
Jan 24
Last Quarter
Jan 30
New
Feb 6
First Quarter

Hourly Weather History & Observations

Time (EST) Temp. Windchill Dew Point Humidity Pressure Visibility Wind Dir Wind Speed Gust Speed Precip Events Conditions
12:15 AM 27.1 °F 15.9 °F 19.4 °F 73% 29.69 in 10.0 mi WSW 13.8 mph 19.6 mph N/A Snow Light Snow
12:35 AM 26.6 °F 12.0 °F 18.0 °F 70% 29.69 in 10.0 mi SW 23.0 mph 28.8 mph N/A   Overcast
12:56 AM 26.2 °F 12.6 °F 16.7 °F 67% 29.68 in 10.0 mi SW 19.6 mph 27.6 mph N/A Snow Light Snow
1:15 AM 25.7 °F 13.1 °F 16.9 °F 69% 29.68 in 10.0 mi SSW 16.1 mph 25.3 mph N/A   Overcast
1:35 AM 25.7 °F 12.3 °F 16.9 °F 69% 29.68 in 10.0 mi SW 18.4 mph 24.2 mph N/A Snow Light Snow
1:55 AM 25.3 °F 12.6 °F 17.1 °F 71% 29.67 in 10.0 mi SSW 16.1 mph 24.2 mph N/A   Overcast
2:15 AM 24.8 °F 11.9 °F 17.4 °F 74% 29.67 in 10.0 mi SSW 16.1 mph 26.5 mph N/A   Mostly Cloudy
2:36 AM 25.2 °F 13.3 °F 17.6 °F 73% 29.67 in 10.0 mi SW 13.8 mph 26.5 mph N/A   Overcast
2:55 AM 25.2 °F 12.4 °F 18.0 °F 74% 29.67 in 10.0 mi SW 16.1 mph 26.5 mph N/A   Overcast
3:15 AM 25.0 °F 9.9 °F 18.0 °F 75% 29.67 in 10.0 mi SW 23.0 mph 28.8 mph N/A   Overcast
3:35 AM 24.8 °F 11.1 °F 17.6 °F 74% 29.67 in 10.0 mi SSW 18.4 mph 28.8 mph N/A   Overcast
3:55 AM 24.8 °F 9.6 °F 17.2 °F 73% 29.67 in 10.0 mi SSW 23.0 mph 32.2 mph N/A   Overcast
4:15 AM 24.6 °F 11.3 °F 17.1 °F 73% 29.68 in 10.0 mi SW 17.3 mph 29.9 mph N/A   Overcast
4:35 AM 24.4 °F 9.2 °F 17.4 °F 75% 29.68 in 10.0 mi SW 23.0 mph 28.8 mph N/A   Overcast
4:55 AM 24.1 °F 10.1 °F 17.6 °F 76% 29.68 in 10.0 mi SW 18.4 mph 27.6 mph N/A   Overcast
5:15 AM 24.3 °F 11.2 °F 18.3 °F 78% 29.69 in 10.0 mi SW 16.1 mph 26.5 mph N/A   Overcast
5:35 AM 24.4 °F 10.2 °F 19.0 °F 80% 29.70 in 10.0 mi SW 19.6 mph 24.2 mph N/A   Overcast
5:55 AM 24.6 °F 12.2 °F 19.6 °F 81% 29.71 in 10.0 mi WSW 15.0 mph 21.9 mph N/A   Overcast
6:15 AM 24.8 °F 11.5 °F 20.3 °F 83% 29.72 in 10.0 mi WSW 17.3 mph 21.9 mph N/A Snow Light Snow
6:36 AM 24.8 °F 14.0 °F 21.0 °F 86% 29.73 in 10.0 mi WSW 11.5 mph 19.6 mph N/A Snow Light Snow
6:55 AM 25.2 °F 13.9 °F 21.6 °F 86% 29.75 in 7.0 mi WSW 12.7 mph 19.6 mph N/A Snow Light Snow
7:15 AM 24.8 °F 10.7 °F 20.8 °F 85% 29.76 in 7.0 mi West 19.6 mph 25.3 mph N/A Snow Light Snow
7:35 AM 24.4 °F 11.0 °F 19.4 °F 81% 29.78 in 10.0 mi West 17.3 mph 24.2 mph N/A Snow Light Snow
7:55 AM 23.9 °F 10.8 °F 18.5 °F 80% 29.80 in 10.0 mi West 16.1 mph 23.0 mph N/A   Overcast
8:15 AM 23.9 °F 11.2 °F 18.5 °F 80% 29.81 in 10.0 mi West 15.0 mph 19.6 mph N/A   Overcast
8:35 AM 23.9 °F 12.3 °F 17.2 °F 76% 29.82 in 10.0 mi WNW 12.7 mph 21.9 mph N/A   Overcast
8:55 AM 23.9 °F 11.2 °F 18.0 °F 78% 29.84 in 10.0 mi West 15.0 mph 21.9 mph N/A   Overcast
9:15 AM 23.9 °F 12.3 °F 17.8 °F 77% 29.85 in 10.0 mi West 12.7 mph 19.6 mph N/A   Overcast
9:35 AM 23.9 °F 11.7 °F 17.2 °F 76% 29.87 in 10.0 mi West 13.8 mph 20.7 mph N/A Snow Light Snow
9:55 AM 23.9 °F 13.5 °F 17.8 °F 77% 29.88 in 4.0 mi West 10.4 mph 18.4 mph N/A Snow Light Snow
10:15 AM 23.9 °F 11.2 °F 17.6 °F 77% 29.89 in 4.0 mi West 15.0 mph - N/A Snow Light Snow
10:35 AM 23.9 °F 12.3 °F 16.5 °F 73% 29.89 in 10.0 mi WNW 12.7 mph 18.4 mph N/A   Overcast
10:56 AM 23.9 °F 12.3 °F 16.2 °F 72% 29.91 in 10.0 mi West 12.7 mph 18.4 mph N/A   Overcast
11:15 AM 24.4 °F 13.5 °F 15.8 °F 70% 29.91 in 10.0 mi West 11.5 mph 19.6 mph N/A   Overcast
11:35 AM 24.6 °F 13.2 °F 15.1 °F 67% 29.91 in 10.0 mi WNW 12.7 mph 18.4 mph N/A   Overcast
11:55 AM 25.5 °F 13.8 °F 14.7 °F 64% 29.91 in 10.0 mi West 13.8 mph 19.6 mph N/A   Overcast
12:15 PM 24.6 °F 14.4 °F 15.3 °F 68% 29.91 in 10.0 mi WNW 10.4 mph 19.6 mph N/A   Overcast
12:35 PM 24.8 °F 15.3 °F 15.8 °F 69% 29.90 in 10.0 mi West 9.2 mph - N/A Snow Light Snow
12:55 PM 24.4 °F 14.2 °F 16.9 °F 73% 29.90 in 3.0 mi West 10.4 mph - N/A Snow Light Snow
1:15 PM 24.8 °F 15.3 °F 16.9 °F 72% 29.90 in 10.0 mi West 9.2 mph - N/A   Overcast
1:35 PM 24.8 °F 16.1 °F 17.1 °F 72% 29.89 in 10.0 mi West 8.1 mph - N/A   Overcast
1:55 PM 24.8 °F 14.6 °F 17.1 °F 72% 29.90 in 10.0 mi West 10.4 mph - N/A   Overcast
2:15 PM 24.6 °F 13.8 °F 16.7 °F 72% 29.90 in 10.0 mi West 11.5 mph - N/A   Overcast
2:35 PM 24.6 °F 14.4 °F 16.3 °F 71% 29.91 in 10.0 mi West 10.4 mph - N/A   Overcast
2:55 PM 24.8 °F 14.6 °F 15.8 °F 69% 29.91 in 10.0 mi West 10.4 mph - N/A   Overcast
3:15 PM 24.6 °F 15.8 °F 16.3 °F 71% 29.91 in 10.0 mi West 8.1 mph - N/A   Overcast
3:35 PM 24.3 °F 13.9 °F 16.7 °F 73% 29.91 in 10.0 mi West 10.4 mph - N/A Snow Light Snow
3:56 PM 23.9 °F 11.2 °F 16.7 °F 74% 29.92 in 7.0 mi West 15.0 mph - N/A Snow Light Snow
4:15 PM 23.9 °F 13.5 °F 16.3 °F 73% 29.93 in 4.0 mi West 10.4 mph - N/A Snow Light Snow
4:35 PM 23.4 °F 14.3 °F 16.7 °F 76% 29.93 in 10.0 mi West 8.1 mph - N/A   Overcast
4:55 PM 23.0 °F 13.1 °F 17.1 °F 78% 29.94 in 10.0 mi West 9.2 mph - N/A Snow Light Snow
5:15 PM 22.8 °F 12.2 °F 17.4 °F 80% 29.95 in 2.5 mi West 10.4 mph - N/A Snow Light Snow
5:35 PM 22.6 °F 10.1 °F 17.4 °F 80% 29.96 in 4.0 mi West 13.8 mph 17.3 mph N/A Snow Light Snow
5:55 PM 21.7 °F 9.6 °F 14.5 °F 74% 29.96 in 10.0 mi West 12.7 mph 18.4 mph N/A   Overcast
6:15 PM 20.7 °F 10.2 °F 12.2 °F 70% 29.96 in 10.0 mi West 9.2 mph - N/A   Mostly Cloudy
6:35 PM 20.8 °F 12.1 °F 13.1 °F 72% 29.96 in 10.0 mi WSW 6.9 mph - N/A   Mostly Cloudy
6:55 PM 20.3 °F 13.8 °F 12.9 °F 73% 29.95 in 10.0 mi WSW 4.6 mph - N/A   Overcast
7:15 PM 19.0 °F 12.3 °F 12.4 °F 75% 29.95 in 10.0 mi WSW 4.6 mph - N/A   Scattered Clouds
7:36 PM 18.5 °F 11.7 °F 12.4 °F 77% 29.96 in 10.0 mi West 4.6 mph - N/A   Clear
7:55 PM 19.2 °F 10.2 °F 12.2 °F 74% 29.96 in 10.0 mi WSW 6.9 mph - N/A   Mostly Cloudy
8:15 PM 20.1 °F 12.3 °F 11.1 °F 68% 29.96 in 10.0 mi WSW 5.8 mph - N/A   Overcast
8:35 PM 20.3 °F 12.5 °F 11.1 °F 68% 29.96 in 10.0 mi WSW 5.8 mph - N/A   Overcast
8:55 PM 20.3 °F 13.8 °F 11.3 °F 68% 29.96 in 10.0 mi WSW 4.6 mph - N/A   Overcast
9:15 PM 20.3 °F 15.4 °F 11.3 °F 68% 29.94 in 10.0 mi SW 3.5 mph - N/A   Overcast
9:35 PM 20.3 °F 11.5 °F 11.3 °F 68% 29.94 in 10.0 mi SSW 6.9 mph - N/A   Overcast
9:55 PM 19.8 °F 5.9 °F 13.3 °F 76% 29.94 in 10.0 mi WSW 15.0 mph 18.4 mph N/A   Overcast
10:15 PM 18.5 °F 6.8 °F 12.6 °F 78% 29.95 in 10.0 mi WSW 10.4 mph - N/A   Overcast
10:35 PM 18.5 °F 9.3 °F 12.0 °F 76% 29.94 in 10.0 mi WSW 6.9 mph - N/A   Overcast
10:55 PM 18.5 °F 9.3 °F 12.2 °F 76% 29.93 in 10.0 mi WSW 6.9 mph - N/A   Overcast
11:16 PM 18.5 °F 9.3 °F 12.2 °F 76% 29.92 in 10.0 mi SW 6.9 mph - N/A Snow Light Snow
11:35 PM 18.3 °F 9.1 °F 12.2 °F 77% 29.92 in 10.0 mi SW 6.9 mph - N/A Snow Light Snow
11:55 PM 18.3 °F 9.1 °F 12.2 °F 77% 29.91 in 10.0 mi SW 6.9 mph - N/A Snow Light Snow